This demonstration page uses our WeatherBlox Daily Observations layout. Learn more.

40.92945, -100.16068

Hourly Observations for March 2, 2019

Temp ( °F °C ) Dew Point ( °F °C ) Humidity (%) Winds ( mph kmh ) Pressure ( in mb ) Visibility ( mi km ) Precip ( " mm )
12:15 am 00:15 Cloudy 20 -6.7 16 -9.1 83 83 NNE 8 13 30.42 1030 10 16.09344 0 0
12:35 am 00:35 Cloudy 20 -6.8 15 -9.3 83 83 N 9 15 30.42 1030 10 16.09344 0 0
12:55 am 00:55 Cloudy 20 -6.7 15 -9.2 83 83 N 7 11 30.45 1031 10 16.09344 0 0
1:15 am 01:15 Cloudy 20 -6.7 15 -9.2 83 83 N 8 13 30.45 1031 10 16.09344 0 0
1:35 am 01:35 Cloudy 20 -6.8 15 -9.3 83 83 N 3 6 30.45 1031 10 16.09344 0 0
1:55 am 01:55 Cloudy 20 -6.7 16 -9.1 83 83 N 7 11 30.45 1031 10 16.09344 0 0
2:15 am 02:15 Cloudy 20 -6.7 15 -9.2 83 83 N 6 9 30.45 1031 10 16.09344 0 0
2:35 am 02:35 Cloudy 20 -6.6 15 -9.2 82 82 N 7 11 30.45 1031 10 16.09344 0 0
2:55 am 02:55 Cloudy 20 -6.6 15 -9.2 82 82 N 6 9 30.45 1031 10 16.09344 0 0
3:15 am 03:15 Cloudy 20 -6.6 15 -9.2 82 82 N 7 11 30.42 1030 10 16.09344 0 0
3:35 am 03:35 Cloudy 20 -6.7 15 -9.2 83 83 NNE 6 9 30.42 1030 10 16.09344 0 0
3:55 am 03:55 Cloudy with Light Snow 20 -6.8 15 -9.2 83 83 NNE 6 9 30.42 1030 5 8.04672 0 0
4:15 am 04:15 Cloudy with Light Snow 19 -7 16 -9.1 85 85 NNE 5 7 30.42 1030 5 8.04672 0 0
4:35 am 04:35 Cloudy with Light Snow 19 -7 15 -9.2 85 85 NE 7 11 30.42 1030 4 6.437376 0 0
4:55 am 04:55 Cloudy with Light Snow 19 -7 16 -9 86 86 NNE 6 9 30.42 1030 5 8.04672 0 0
5:15 am 05:15 Cloudy with Light Snow 19 -7 16 -9 86 86 NE 7 11 30.42 1030 5 8.04672 0 0
5:35 am 05:35 Cloudy with Light Snow 19 -7.1 16 -9.1 86 86 NE 5 7 30.42 1030 3 4.828032 0 0
5:55 am 05:55 Cloudy with Light Snow 19 -7.1 16 -9.1 86 86 NE 5 7 30.45 1031 4 6.437376 0 0
6:15 am 06:15 Cloudy with Light Snow 19 -7.2 16 -9.1 86 86 NE 7 11 30.45 1031 3 4.828032 0 0
6:35 am 06:35 Cloudy with Light Snow 19 -7.5 15 -9.3 87 87 NE 7 11 30.48 1032 2 3.218688 0 0
6:55 am 06:55 Cloudy with Light Snow 18 -7.6 15 -9.5 86 86 NNE 12 19 30.48 1032 3 4.828032 0.01 0.254
7:15 am 07:15 Cloudy with Light Snow 18 -8 14 -10 86 86 NE 9 15 30.48 1032 2.5 4.02336 0 0
7:35 am 07:35 Cloudy with Snow 18 -8 14 -9.9 86 86 ENE 6 9 30.45 1031 0.5 0.804672 0 0
7:55 am 07:55 Cloudy with Light Snow 17 -8.1 14 -10 86 86 ENE 9 15 30.48 1032 0.75 1.207008 0 0
8:15 am 08:15 Cloudy with Snow 17 -8.2 14 -10.1 86 86 NE 9 15 30.48 1032 0.25 0.402336 0 0
8:35 am 08:35 Cloudy with Light Snow 17 -8.2 14 -10.1 86 86 NE 10 17 30.53 1034 1.25 2.01168 0 0
8:55 am 08:55 Cloudy with Light Snow 17 -8.3 13 -10.5 84 84 NE 15 24 30.53 1034 1.25 2.01168 0.01 0.254
9:15 am 09:15 Cloudy with Light Snow 17 -8.3 13 -10.5 84 84 ENE 17 28 30.48 1032 0.25 0.402336 0 0
9:35 am 09:35 Cloudy with Light Snow 17 -8.2 13 -10.6 83 83 ENE 16 26 30.48 1032 0.75 1.207008 0 0
9:55 am 09:55 Cloudy with Light Snow 17 -8.2 13 -10.7 82 82 NE 14 22 30.53 1034 0.5 0.804672 0 0
10:15 am 10:15 Cloudy with Light Snow 17 -8.3 12 -11 81 81 NE 17 28 30.53 1034 1.5 2.414016 0 0
10:35 am 10:35 Cloudy with Light Snow 17 -8.3 12 -11.1 80 80 NE 17 28 30.53 1034 2 3.218688 0 0
10:55 am 10:55 Cloudy with Light Snow 17 -8.2 12 -11 80 80 ENE 17 28 30.53 1034 1.5 2.414016 0 0
11:15 am 11:15 Cloudy with Light Snow 17 -8.5 12 -11.2 81 81 NE 14 22 30.53 1034 4 6.437376 0 0
11:35 am 11:35 Cloudy with Light Snow 17 -8.4 11 -11.4 79 79 ENE 15 24 30.56 1035 5 8.04672 0 0
11:55 am 11:55 Cloudy with Light Snow 17 -8.5 11 -11.6 79 79 NE 12 19 30.56 1035 10 16.09344 0 0
12:15 pm 12:15 Cloudy 17 -8.6 10 -12.1 76 76 ENE 13 20 30.56 1035 7 11.265408 0 0
12:35 pm 12:35 Cloudy with Light Snow 16 -8.8 10 -12.4 75 75 NE 10 17 30.56 1035 7 11.265408 0 0
12:55 pm 12:55 Cloudy with Light Snow 16 -8.9 10 -12.2 77 77 NE 14 22 30.53 1034 4 6.437376 0 0
1:15 pm 13:15 Cloudy 16 -9.1 10 -12.5 77 77 NE 14 22 30.53 1034 10 16.09344 0 0
1:35 pm 13:35 Cloudy with Light Snow 16 -9.1 10 -12.4 77 77 ENE 12 19 30.53 1034 7 11.265408 0 0
1:55 pm 13:55 Cloudy 15 -9.2 9 -12.6 77 77 NE 15 24 30.53 1034 10 16.09344 0 0
2:15 pm 14:15 Cloudy 15 -9.2 9 -12.7 76 76 ENE 15 24 30.53 1034 10 16.09344 0 0
2:35 pm 14:35 Cloudy with Light Snow 15 -9.3 9 -13 75 75 NE 16 26 30.53 1034 10 16.09344 0 0
2:55 pm 14:55 Cloudy with Light Snow 15 -9.5 9 -12.9 77 77 NE 16 26 30.53 1034 7 11.265408 0 0
3:15 pm 15:15 Cloudy with Light Snow 15 -9.5 9 -13 76 76 NE 16 26 30.53 1034 7 11.265408 0 0
3:35 pm 15:35 Cloudy with Light Snow 15 -9.7 8 -13.3 75 75 NE 14 22 30.53 1034 10 16.09344 0 0
3:55 pm 15:55 Cloudy with Light Snow 14 -10 8 -13.5 76 76 NE 16 26 30.53 1034 7 11.265408 0 0
4:15 pm 16:15 Cloudy with Light Snow 14 -10 8 -13.6 75 75 NE 16 26 30.56 1035 5 8.04672 0 0
4:35 pm 16:35 Cloudy with Light Snow 14 -10.1 8 -13.5 76 76 NE 16 26 30.56 1035 7 11.265408 0 0
4:55 pm 16:55 Cloudy with Light Snow 13 -10.3 8 -13.6 77 77 NE 14 22 30.56 1035 5 8.04672 0 0
5:15 pm 17:15 Cloudy with Light Snow 13 -10.5 8 -13.5 79 79 NE 13 20 30.59 1036 4 6.437376 0 0
5:35 pm 17:35 Cloudy with Light Snow 13 -10.5 7 -13.7 78 78 NE 14 22 30.59 1036 7 11.265408 0 0
5:55 pm 17:55 Cloudy with Light Snow 13 -10.7 7 -13.8 78 78 NE 15 24 30.59 1036 7 11.265408 0 0
6:15 pm 18:15 Cloudy with Light Snow 13 -10.7 8 -13.6 79 79 NE 15 24 30.59 1036 10 16.09344 0 0
6:35 pm 18:35 Cloudy 12 -11 6 -14.2 78 78 NE 16 26 30.59 1036 10 16.09344 0 0
6:55 pm 18:55 Cloudy with Light Snow 12 -11.3 6 -14.5 77 77 NNE 13 20 30.59 1036 10 16.09344 0 0
7:15 pm 19:15 Cloudy 11 -11.7 5 -15.1 76 76 NNE 14 22 30.59 1036 10 16.09344 0 0
7:35 pm 19:35 Cloudy 10 -12.1 4 -15.4 77 77 NNE 14 22 30.59 1036 10 16.09344 0 0
7:55 pm 19:55 Cloudy 10 -12.2 4 -15.7 75 75 NE 16 26 30.59 1036 10 16.09344 0 0
8:15 pm 20:15 Cloudy 10 -12.2 4 -15.5 77 77 NNE 16 26 30.59 1036 10 16.09344 0 0
8:35 pm 20:35 Cloudy 10 -12.3 4 -15.6 77 77 NNE 13 20 30.62 1037 10 16.09344 0 0
8:55 pm 20:55 Cloudy 10 -12.5 3 -16.2 74 74 NNE 14 22 30.62 1037 10 16.09344 0 0
9:15 pm 21:15 Cloudy 10 -12.5 3 -16 75 75 NNE 15 24 30.62 1037 10 16.09344 0 0
9:35 pm 21:35 Cloudy with Light Snow 9 -12.6 4 -15.8 77 77 NNE 14 22 30.59 1036 10 16.09344 0 0
9:55 pm 21:55 Cloudy with Light Snow 9 -13 3 -16.1 78 78 NNE 15 24 30.65 1038 4 6.437376 0 0
10:15 pm 22:15 Cloudy with Light Snow 8 -13.2 3 -16.2 78 78 NNE 16 26 30.65 1038 3 4.828032 0 0
10:35 pm 22:35 Cloudy with Light Snow 7 -13.7 1 -17 76 76 NNE 16 26 30.65 1038 2.5 4.02336 0 0
10:55 pm 22:55 Cloudy with Light Snow 7 -14.1 1 -17.1 78 78 NNE 18 30 30.65 1038 2 3.218688 0 0
11:15 pm 23:15 Cloudy with Light Snow 6 -14.5 1 -17.4 79 79 NNE 16 26 30.65 1038 2 3.218688 0 0
11:35 pm 23:35 Cloudy with Light Snow 6 -14.6 0 -17.7 78 78 N 17 28 30.65 1038 2.5 4.02336 0 0
11:55 pm 23:55 Cloudy with Light Snow 5 -15 -1 -18.2 77 77 NNE 16 26 30.65 1038 2.5 4.02336 0 0

Powered by AerisWeather